sat.trackr.live / text

‹ back to catalog

STARLINK-32107

NORAD 59694 · 2024-086N

PAYLOAD ACTIVE UNKNOWN

§ Identity

Operator
Country
US
Launch date
2024-05-08
Launch site
AFETR
Launch vehicle
Mass (kg)
RCS (m²)

Purposes: comms

External: N2YO · Heavens-Above · Gunter

§ Orbital elements

Epoch: 2026-09-21T16:22:06.946176Z

Period
94.27 min
Inclination
43.0061°
Eccentricity
0.0001733
Mean motion
15.27579594 rev/d
Perigee alt
481.9 km
Apogee alt
484.2 km
Semi-major
6,861.2 km
B*
2.5103e-5
RAAN
33.2911°
Arg perigee
270.3865°
Mean anomaly
89.6789°
Rev number
13,408

§ Raw data

STARLINK-321071 59694U 24086N   26264.68202484  .00000428  00000+0  25103-4 0  99952 59694  43.0061  33.2911 0001733 270.3865  89.6789 15.27579594134080

JSON: /api/v1/satellites/59694 · /tle

For live sub-satellite position, see the globe view (requires WebGL).

§ Visibility from observer

Set your observer location to see the next 7 days of passes ≥ 10°. The values pass through the URL so the page stays shareable.

No JS? Fill the form by hand. The geolocation button needs JavaScript.